Location: Bednik
(45.3500°N, 16.3833°E)
Time: 10:21:49
(UTC+00:00)

Cosmos 2369 - Pass Details

Date: 08 August 2020
Orbit: 838 x 857 km, 71.0° (Epoch: 21 September)

Event Time Altitude Azimuth Distance (km) Brightness Sun altitude
Rises 19:56:48 0° 332° (NNW) 3,439 8.3 -16.1°
Reaches altitude 10° 19:59:16 10° 331° (NNW) 2,500 7.3 -16.4°
Maximum altitude 20:05:00 74° 247° (WSW) 892 3.8 -17.1°
Enters shadow 20:08:30 24° 167° (SSE) 1,683 4.8 -17.5°
